User: anonymous   Login
Location: Unspecified
(0.0000°N, 0.0000°E)
Time: 12:51:34
(UTC+00:00)
Language:

ESTCUBE 1 - Orbit

View from above orbital plane
View from above orbital plane
View from above satellite
View from above satellite

Ground track
Ground track

The orbit data is extracted from the following two-line orbital elements,

1 39161U 13021C   17230.19646543  .00000118  00000-0  26812-4 0  9991
2 39161  98.0272 315.3891 0008313 312.1000  47.9512 14.71920432229871
Epoch (UTC): 18 August 2017 04:42:54
Eccentricity: 0.0008313
inclination: 98.0272°
perigee height: 649 km
apogee height: 661 km
right ascension of ascending node: 315.3891°
argument of perigee: 312.1000°
revolutions per day: 14.71920432
mean anomaly at epoch: 47.9512°
orbit number at epoch: 22987

The dashed part of the orbit path shows where the satellite is in the earth's shadow,  

DLR